contact:dominique.lefevre@mio.osupytheas.fr, maurice.libes@osupytheas.fr, didier.mallarino@osupytheas.fr
Project:EMSO http://www.emso-fr.org/EMSO-France
Depth: 2436.0 m
Title:EMSO Ligure Ouest : Data MII capteur OXYGEN
DateTime,Latitude,Longitude,Optode-Type,Optode_Serial,Oxygen,Saturation_Oxygen,Temperature
DateTime,Latitude,Longitude,Optode-Type,Optode_Serial,µmol.l-1,%,degC
2017-10-14T00:01:52,42.805,6.029,4330,1995,198.870,60.815,13.287
2017-10-14T00:04:52,42.805,6.029,4330,1995,198.850,60.810,13.287
2017-10-14T00:07:52,42.805,6.029,4330,1995,198.801,60.796,13.288
2017-10-14T00:10:52,42.805,6.029,4330,1995,198.709,60.767,13.287
2017-10-14T00:13:52,42.805,6.029,4330,1995,198.655,60.750,13.287
2017-10-14T00:16:52,42.805,6.029,4330,1995,198.689,60.760,13.287
2017-10-14T00:19:52,42.805,6.029,4330,1995,198.803,60.795,13.287
2017-10-14T00:22:52,42.805,6.029,4330,1995,198.962,60.843,13.287
2017-10-14T00:25:52,42.805,6.029,4330,1995,198.841,60.806,13.286
2017-10-14T00:28:52,42.805,6.029,4330,1995,199.009,60.857,13.286
2017-10-14T00:31:52,42.805,6.029,4330,1995,198.958,60.842,13.286
2017-10-14T00:34:52,42.805,6.029,4330,1995,198.967,60.844,13.286
2017-10-14T00:37:52,42.805,6.029,4330,1995,198.906,60.826,13.287
2017-10-14T00:40:52,42.805,6.029,4330,1995,199.042,60.867,13.286
2017-10-14T00:43:52,42.805,6.029,4330,1995,199.046,60.869,13.286
2017-10-14T00:46:52,42.805,6.029,4330,1995,198.983,60.850,13.286
2017-10-14T00:49:52,42.805,6.029,4330,1995,198.821,60.801,13.287
2017-10-14T00:52:52,42.805,6.029,4330,1995,198.790,60.791,13.287
2017-10-14T00:55:52,42.805,6.029,4330,1995,198.708,60.766,13.287
2017-10-14T00:58:52,42.805,6.029,4330,1995,198.847,60.808,13.286
2017-10-14T01:01:52,42.805,6.029,4330,1995,198.919,60.830,13.287
2017-10-14T01:04:52,42.805,6.029,4330,1995,198.933,60.835,13.287
2017-10-14T01:07:52,42.805,6.029,4330,1995,198.884,60.819,13.286
2017-10-14T01:10:52,42.805,6.029,4330,1995,198.939,60.836,13.286
2017-10-14T01:13:52,42.805,6.029,4330,1995,198.841,60.806,13.287
2017-10-14T01:16:52,42.805,6.029,4330,1995,199.024,60.862,13.286
2017-10-14T01:19:52,42.805,6.029,4330,1995,199.175,60.908,13.286
2017-10-14T01:22:52,42.805,6.029,4330,1995,199.121,60.891,13.286
2017-10-14T01:25:52,42.805,6.029,4330,1995,199.140,60.898,13.286
2017-10-14T01:28:52,42.805,6.029,4330,1995,199.064,60.875,13.287
2017-10-14T01:31:52,42.805,6.029,4330,1995,199.115,60.890,13.287
2017-10-14T01:34:52,42.805,6.029,4330,1995,198.889,60.821,13.287
2017-10-14T01:37:52,42.805,6.029,4330,1995,198.990,60.851,13.286
2017-10-14T01:40:52,42.805,6.029,4330,1995,198.835,60.804,13.286
2017-10-14T01:43:52,42.805,6.029,4330,1995,198.727,60.773,13.288
2017-10-14T01:46:52,42.805,6.029,4330,1995,198.793,60.793,13.288
2017-10-14T01:49:52,42.805,6.029,4330,1995,198.782,60.788,13.286
2017-10-14T01:52:52,42.805,6.029,4330,1995,198.859,60.812,13.287
2017-10-14T01:55:52,42.805,6.029,4330,1995,198.813,60.798,13.286
2017-10-14T01:58:52,42.805,6.029,4330,1995,198.657,60.750,13.287
2017-10-14T02:01:52,42.805,6.029,4330,1995,198.751,60.779,13.287
2017-10-14T02:04:52,42.805,6.029,4330,1995,198.856,60.811,13.286
2017-10-14T02:07:52,42.805,6.029,4330,1995,198.955,60.841,13.286
2017-10-14T02:10:52,42.805,6.029,4330,1995,198.876,60.816,13.286
2017-10-14T02:13:52,42.805,6.029,4330,1995,198.930,60.833,13.286
2017-10-14T02:16:52,42.805,6.029,4330,1995,198.780,60.787,13.286
2017-10-14T02:19:52,42.805,6.029,4330,1995,198.917,60.830,13.287
2017-10-14T02:22:52,42.805,6.029,4330,1995,199.001,60.855,13.287
2017-10-14T02:25:52,42.805,6.029,4330,1995,198.919,60.830,13.286
2017-10-14T02:28:52,42.805,6.029,4330,1995,198.980,60.848,13.286
2017-10-14T02:31:52,42.805,6.029,4330,1995,199.167,60.906,13.287
2017-10-14T02:34:52,42.805,6.029,4330,1995,199.208,60.919,13.287
2017-10-14T02:37:52,42.805,6.029,4330,1995,199.053,60.871,13.286
2017-10-14T02:40:52,42.805,6.029,4330,1995,199.066,60.875,13.286
2017-10-14T02:43:52,42.805,6.029,4330,1995,199.119,60.892,13.287
2017-10-14T02:46:52,42.805,6.029,4330,1995,199.204,60.918,13.287
2017-10-14T02:49:52,42.805,6.029,4330,1995,199.207,60.918,13.286
2017-10-14T02:52:52,42.805,6.029,4330,1995,199.022,60.862,13.287
2017-10-14T02:55:52,42.805,6.029,4330,1995,199.218,60.922,13.287
2017-10-14T02:58:52,42.805,6.029,4330,1995,199.172,60.907,13.286
2017-10-14T03:01:52,42.805,6.029,4330,1995,199.086,60.881,13.286
2017-10-14T03:04:52,42.805,6.029,4330,1995,199.055,60.871,13.286
2017-10-14T03:07:52,42.805,6.029,4330,1995,199.166,60.905,13.286
2017-10-14T03:10:52,42.805,6.029,4330,1995,199.264,60.935,13.286
2017-10-14T03:13:52,42.805,6.029,4330,1995,199.176,60.908,13.286
2017-10-14T03:16:52,42.805,6.029,4330,1995,199.159,60.903,13.286
2017-10-14T03:19:52,42.805,6.029,4330,1995,199.202,60.916,13.286
2017-10-14T03:22:52,42.805,6.029,4330,1995,199.081,60.880,13.287
2017-10-14T03:25:52,42.805,6.029,4330,1995,199.244,60.929,13.286
2017-10-14T03:28:52,42.805,6.029,4330,1995,199.181,60.909,13.286
2017-10-14T03:31:52,42.805,6.029,4330,1995,199.117,60.892,13.287
2017-10-14T03:34:52,42.805,6.029,4330,1995,199.322,60.953,13.286
2017-10-14T03:37:52,42.805,6.029,4330,1995,199.287,60.942,13.286
2017-10-14T03:40:52,42.805,6.029,4330,1995,199.050,60.870,13.286
2017-10-14T03:43:52,42.805,6.029,4330,1995,199.090,60.882,13.286
2017-10-14T03:46:52,42.805,6.029,4330,1995,199.204,60.917,13.286
2017-10-14T03:49:52,42.805,6.029,4330,1995,199.110,60.888,13.286
2017-10-14T03:52:52,42.805,6.029,4330,1995,199.226,60.924,13.286
2017-10-14T03:55:52,42.805,6.029,4330,1995,199.092,60.883,13.286
2017-10-14T03:58:52,42.805,6.029,4330,1995,199.122,60.892,13.286
2017-10-14T04:01:52,42.805,6.029,4330,1995,199.197,60.915,13.286
2017-10-14T04:04:52,42.805,6.029,4330,1995,199.277,60.940,13.287
2017-10-14T04:07:52,42.805,6.029,4330,1995,199.192,60.913,13.286
2017-10-14T04:10:52,42.805,6.029,4330,1995,199.171,60.907,13.286
2017-10-14T04:13:52,42.805,6.029,4330,1995,199.066,60.875,13.286
2017-10-14T04:16:52,42.805,6.029,4330,1995,199.280,60.941,13.287
2017-10-14T04:19:52,42.805,6.029,4330,1995,199.253,60.932,13.286
2017-10-14T04:22:52,42.805,6.029,4330,1995,199.082,60.879,13.286
2017-10-14T04:25:52,42.805,6.029,4330,1995,199.102,60.886,13.286
2017-10-14T04:28:52,42.805,6.029,4330,1995,199.192,60.913,13.286
2017-10-14T04:31:52,42.805,6.029,4330,1995,199.257,60.933,13.286
2017-10-14T04:34:52,42.805,6.029,4330,1995,199.346,60.960,13.286
2017-10-14T04:37:52,42.805,6.029,4330,1995,199.244,60.929,13.286
2017-10-14T04:40:52,42.805,6.029,4330,1995,199.319,60.952,13.286
2017-10-14T04:43:52,42.805,6.029,4330,1995,199.413,60.981,13.286
2017-10-14T04:46:52,42.805,6.029,4330,1995,199.424,60.984,13.286
2017-10-14T04:49:52,42.805,6.029,4330,1995,199.319,60.952,13.286
2017-10-14T04:52:52,42.805,6.029,4330,1995,199.228,60.924,13.286
2017-10-14T04:55:52,42.805,6.029,4330,1995,199.318,60.951,13.286
2017-10-14T04:58:52,42.805,6.029,4330,1995,199.339,60.958,13.286
2017-10-14T05:01:52,42.805,6.029,4330,1995,199.381,60.971,13.286
2017-10-14T05:04:52,42.805,6.029,4330,1995,199.428,60.985,13.286
2017-10-14T05:07:52,42.805,6.029,4330,1995,199.488,61.004,13.286
2017-10-14T05:10:52,42.805,6.029,4330,1995,199.507,61.009,13.286
2017-10-14T05:13:52,42.805,6.029,4330,1995,199.532,61.017,13.286
2017-10-14T05:16:52,42.805,6.029,4330,1995,199.534,61.018,13.287
2017-10-14T05:19:52,42.805,6.029,4330,1995,199.599,61.037,13.286
2017-10-14T05:22:52,42.805,6.029,4330,1995,199.580,61.032,13.286
2017-10-14T05:25:52,42.805,6.029,4330,1995,199.605,61.039,13.286
2017-10-14T05:28:52,42.805,6.029,4330,1995,199.613,61.042,13.286
2017-10-14T05:31:52,42.805,6.029,4330,1995,199.503,61.009,13.286
2017-10-14T05:34:52,42.805,6.029,4330,1995,199.665,61.058,13.286
2017-10-14T05:37:52,42.805,6.029,4330,1995,199.618,61.043,13.286
2017-10-14T05:40:52,42.805,6.029,4330,1995,199.676,61.061,13.286
2017-10-14T05:43:52,42.805,6.029,4330,1995,199.690,61.065,13.286
2017-10-14T05:46:52,42.805,6.029,4330,1995,199.632,61.048,13.286
2017-10-14T05:49:52,42.805,6.029,4330,1995,199.689,61.065,13.286
2017-10-14T05:52:52,42.805,6.029,4330,1995,199.663,61.057,13.286
2017-10-14T05:55:52,42.805,6.029,4330,1995,199.691,61.066,13.286
2017-10-14T05:58:52,42.805,6.029,4330,1995,199.741,61.081,13.286
2017-10-14T06:01:52,42.805,6.029,4330,1995,199.760,61.087,13.286
2017-10-14T06:04:52,42.805,6.029,4330,1995,199.763,61.088,13.286
2017-10-14T06:07:52,42.805,6.029,4330,1995,199.776,61.092,13.286
2017-10-14T06:10:52,42.805,6.029,4330,1995,199.671,61.059,13.286
2017-10-14T06:13:52,42.805,6.029,4330,1995,199.666,61.058,13.286
2017-10-14T06:16:52,42.805,6.029,4330,1995,199.665,61.057,13.286
2017-10-14T06:19:52,42.805,6.029,4330,1995,199.774,61.091,13.286
2017-10-14T06:22:52,42.805,6.029,4330,1995,199.794,61.097,13.286
2017-10-14T06:25:52,42.805,6.029,4330,1995,199.786,61.094,13.286
2017-10-14T06:28:52,42.805,6.029,4330,1995,199.795,61.097,13.286
2017-10-14T06:31:52,42.805,6.029,4330,1995,199.850,61.114,13.286
2017-10-14T06:34:52,42.805,6.029,4330,1995,199.864,61.118,13.286
2017-10-14T06:37:52,42.805,6.029,4330,1995,199.822,61.105,13.286
2017-10-14T06:40:52,42.805,6.029,4330,1995,199.858,61.117,13.286
2017-10-14T06:43:52,42.805,6.029,4330,1995,199.879,61.123,13.286
2017-10-14T06:46:52,42.805,6.029,4330,1995,199.883,61.124,13.286
2017-10-14T06:49:52,42.805,6.029,4330,1995,199.807,61.101,13.286
2017-10-14T06:52:52,42.805,6.029,4330,1995,199.821,61.105,13.286
2017-10-14T06:55:52,42.805,6.029,4330,1995,199.787,61.095,13.286
2017-10-14T06:58:52,42.805,6.029,4330,1995,199.841,61.111,13.286
2017-10-14T07:01:52,42.805,6.029,4330,1995,199.937,61.140,13.286
2017-10-14T07:04:52,42.805,6.029,4330,1995,199.838,61.110,13.286
2017-10-14T07:07:52,42.805,6.029,4330,1995,199.880,61.123,13.286
2017-10-14T07:10:52,42.805,6.029,4330,1995,199.957,61.147,13.286
2017-10-14T07:13:52,42.805,6.029,4330,1995,199.879,61.123,13.286
2017-10-14T07:16:52,42.805,6.029,4330,1995,199.881,61.124,13.286
2017-10-14T07:19:52,42.805,6.029,4330,1995,199.784,61.094,13.286
2017-10-14T07:22:52,42.805,6.029,4330,1995,199.844,61.112,13.286
2017-10-14T07:25:52,42.805,6.029,4330,1995,199.823,61.106,13.286
2017-10-14T07:28:52,42.805,6.029,4330,1995,199.853,61.115,13.286
2017-10-14T07:31:52,42.805,6.029,4330,1995,199.831,61.108,13.286
2017-10-14T07:34:52,42.805,6.029,4330,1995,199.878,61.123,13.286
2017-10-14T07:37:52,42.805,6.029,4330,1995,199.875,61.122,13.286
2017-10-14T07:40:52,42.805,6.029,4330,1995,199.872,61.121,13.286
2017-10-14T07:43:52,42.805,6.029,4330,1995,199.890,61.126,13.286
2017-10-14T07:46:52,42.805,6.029,4330,1995,199.805,61.100,13.286
2017-10-14T07:49:52,42.805,6.029,4330,1995,199.765,61.088,13.286
2017-10-14T07:52:52,42.805,6.029,4330,1995,199.770,61.090,13.286
2017-10-14T07:55:52,42.805,6.029,4330,1995,199.781,61.093,13.286
2017-10-14T07:58:52,42.805,6.029,4330,1995,199.809,61.102,13.286
2017-10-14T08:01:52,42.805,6.029,4330,1995,199.777,61.091,13.286
2017-10-14T08:04:52,42.805,6.029,4330,1995,199.747,61.083,13.286
2017-10-14T08:07:52,42.805,6.029,4330,1995,199.776,61.092,13.286
2017-10-14T08:10:52,42.805,6.029,4330,1995,199.812,61.102,13.286
2017-10-14T08:13:52,42.805,6.029,4330,1995,199.888,61.125,13.286
2017-10-14T08:16:52,42.805,6.029,4330,1995,199.850,61.114,13.286
2017-10-14T08:19:52,42.805,6.029,4330,1995,199.828,61.107,13.286
2017-10-14T08:22:52,42.805,6.029,4330,1995,199.837,61.110,13.286
2017-10-14T08:25:52,42.805,6.029,4330,1995,199.808,61.102,13.286
2017-10-14T08:28:52,42.805,6.029,4330,1995,199.745,61.082,13.286
2017-10-14T08:31:52,42.805,6.029,4330,1995,199.747,61.083,13.286
2017-10-14T08:34:52,42.805,6.029,4330,1995,199.804,61.100,13.286
2017-10-14T08:37:52,42.805,6.029,4330,1995,199.694,61.066,13.286
2017-10-14T08:40:52,42.805,6.029,4330,1995,199.902,61.130,13.286
2017-10-14T08:43:52,42.805,6.029,4330,1995,199.843,61.112,13.286
2017-10-14T08:46:52,42.805,6.029,4330,1995,199.684,61.064,13.287
2017-10-14T08:49:52,42.805,6.029,4330,1995,199.612,61.041,13.286
2017-10-14T08:52:52,42.805,6.029,4330,1995,199.742,61.081,13.286
2017-10-14T08:55:52,42.805,6.029,4330,1995,199.736,61.079,13.286
2017-10-14T08:58:52,42.805,6.029,4330,1995,199.845,61.112,13.286
2017-10-14T09:01:52,42.805,6.029,4330,1995,199.837,61.110,13.286
2017-10-14T09:04:52,42.805,6.029,4330,1995,199.817,61.104,13.286
2017-10-14T09:07:52,42.805,6.029,4330,1995,199.828,61.108,13.286
2017-10-14T09:10:52,42.805,6.029,4330,1995,199.825,61.107,13.286
2017-10-14T09:13:52,42.805,6.029,4330,1995,199.831,61.108,13.286
2017-10-14T09:16:52,42.805,6.029,4330,1995,199.824,61.106,13.286
2017-10-14T09:19:52,42.805,6.029,4330,1995,199.785,61.094,13.286
2017-10-14T09:22:52,42.805,6.029,4330,1995,199.752,61.084,13.286
2017-10-14T09:25:52,42.805,6.029,4330,1995,199.732,61.078,13.286
2017-10-14T09:28:52,42.805,6.029,4330,1995,199.758,61.086,13.286
2017-10-14T09:31:52,42.805,6.029,4330,1995,199.686,61.064,13.286
2017-10-14T09:34:52,42.805,6.029,4330,1995,199.717,61.074,13.286
2017-10-14T09:37:52,42.805,6.029,4330,1995,199.760,61.087,13.286
2017-10-14T09:40:52,42.805,6.029,4330,1995,199.719,61.074,13.286
2017-10-14T09:43:52,42.805,6.029,4330,1995,199.747,61.083,13.286
2017-10-14T09:46:52,42.805,6.029,4330,1995,199.684,61.063,13.286
2017-10-14T09:49:52,42.805,6.029,4330,1995,199.636,61.049,13.286
2017-10-14T09:52:52,42.805,6.029,4330,1995,199.690,61.065,13.286
2017-10-14T09:55:52,42.805,6.029,4330,1995,199.743,61.081,13.286
2017-10-14T09:58:52,42.805,6.029,4330,1995,199.770,61.090,13.287
2017-10-14T10:01:52,42.805,6.029,4330,1995,199.784,61.094,13.286
2017-10-14T10:04:52,42.805,6.029,4330,1995,199.664,61.057,13.286
2017-10-14T10:07:52,42.805,6.029,4330,1995,199.659,61.056,13.286
2017-10-14T10:10:52,42.805,6.029,4330,1995,199.741,61.081,13.286
2017-10-14T10:13:52,42.805,6.029,4330,1995,199.653,61.054,13.286
2017-10-14T10:16:52,42.805,6.029,4330,1995,199.710,61.072,13.286
2017-10-14T10:19:52,42.805,6.029,4330,1995,199.673,61.060,13.286
2017-10-14T10:22:52,42.805,6.029,4330,1995,199.702,61.069,13.286
2017-10-14T10:25:52,42.805,6.029,4330,1995,199.686,61.064,13.286
2017-10-14T10:28:52,42.805,6.029,4330,1995,199.624,61.045,13.286
2017-10-14T10:31:52,42.805,6.029,4330,1995,199.678,61.062,13.286
2017-10-14T10:34:52,42.805,6.029,4330,1995,199.745,61.082,13.286
2017-10-14T10:37:52,42.805,6.029,4330,1995,199.855,61.116,13.286
2017-10-14T10:40:52,42.805,6.029,4330,1995,199.763,61.088,13.286
2017-10-14T10:43:52,42.805,6.029,4330,1995,199.787,61.095,13.286
2017-10-14T10:46:52,42.805,6.029,4330,1995,199.737,61.079,13.286
2017-10-14T10:49:52,42.805,6.029,4330,1995,199.648,61.053,13.286
2017-10-14T10:52:52,42.805,6.029,4330,1995,199.724,61.075,13.286
2017-10-14T10:55:52,42.805,6.029,4330,1995,199.808,61.101,13.286
2017-10-14T10:58:52,42.805,6.029,4330,1995,199.759,61.087,13.286
2017-10-14T11:01:52,42.805,6.029,4330,1995,199.822,61.106,13.286
2017-10-14T11:04:52,42.805,6.029,4330,1995,199.743,61.081,13.286
2017-10-14T11:07:52,42.805,6.029,4330,1995,199.787,61.095,13.286
2017-10-14T11:10:52,42.805,6.029,4330,1995,199.739,61.080,13.286
2017-10-14T11:13:52,42.805,6.029,4330,1995,199.755,61.085,13.286
2017-10-14T11:16:52,42.805,6.029,4330,1995,199.739,61.080,13.286
2017-10-14T11:19:52,42.805,6.029,4330,1995,199.801,61.099,13.286
2017-10-14T11:22:52,42.805,6.029,4330,1995,199.860,61.117,13.286
2017-10-14T11:25:52,42.805,6.029,4330,1995,199.884,61.124,13.286
2017-10-14T11:28:52,42.805,6.029,4330,1995,199.837,61.110,13.286
2017-10-14T11:31:52,42.805,6.029,4330,1995,199.821,61.105,13.286
2017-10-14T11:34:52,42.805,6.029,4330,1995,199.786,61.094,13.286
2017-10-14T11:37:52,42.805,6.029,4330,1995,199.914,61.133,13.286
2017-10-14T11:40:52,42.805,6.029,4330,1995,199.843,61.112,13.286
2017-10-14T11:43:52,42.805,6.029,4330,1995,199.883,61.124,13.286
2017-10-14T11:46:52,42.805,6.029,4330,1995,199.907,61.131,13.286
2017-10-14T11:49:52,42.805,6.029,4330,1995,199.923,61.136,13.286
2017-10-14T11:52:52,42.805,6.029,4330,1995,199.880,61.123,13.286
2017-10-14T11:55:52,42.805,6.029,4330,1995,199.853,61.115,13.286
2017-10-14T11:58:52,42.805,6.029,4330,1995,199.871,61.120,13.286
2017-10-14T12:01:52,42.805,6.029,4330,1995,199.831,61.109,13.286
2017-10-14T12:04:52,42.805,6.029,4330,1995,199.846,61.113,13.286
2017-10-14T12:07:52,42.805,6.029,4330,1995,199.872,61.121,13.286
2017-10-14T12:10:52,42.805,6.029,4330,1995,199.895,61.128,13.286
2017-10-14T12:13:52,42.805,6.029,4330,1995,199.882,61.125,13.286
2017-10-14T12:16:52,42.805,6.029,4330,1995,199.833,61.109,13.286
2017-10-14T12:19:52,42.805,6.029,4330,1995,199.979,61.154,13.286
2017-10-14T12:22:52,42.805,6.029,4330,1995,199.923,61.137,13.286
2017-10-14T12:25:52,42.805,6.029,4330,1995,199.930,61.138,13.286
2017-10-14T12:28:52,42.805,6.029,4330,1995,199.908,61.132,13.286
2017-10-14T12:31:52,42.805,6.029,4330,1995,199.998,61.159,13.286
2017-10-14T12:34:52,42.805,6.029,4330,1995,199.981,61.154,13.286
2017-10-14T12:37:52,42.805,6.029,4330,1995,199.973,61.152,13.286
2017-10-14T12:40:52,42.805,6.029,4330,1995,199.879,61.123,13.286
2017-10-14T12:43:52,42.805,6.029,4330,1995,199.858,61.117,13.287
2017-10-14T12:46:52,42.805,6.029,4330,1995,199.957,61.147,13.286
2017-10-14T12:49:52,42.805,6.029,4330,1995,199.861,61.117,13.286
2017-10-14T12:52:52,42.805,6.029,4330,1995,199.952,61.146,13.286
2017-10-14T12:55:52,42.805,6.029,4330,1995,199.931,61.139,13.286
2017-10-14T12:58:52,42.805,6.029,4330,1995,200.041,61.173,13.286
2017-10-14T13:01:52,42.805,6.029,4330,1995,199.944,61.143,13.286
2017-10-14T13:04:52,42.805,6.029,4330,1995,199.889,61.126,13.286
2017-10-14T13:07:52,42.805,6.029,4330,1995,199.893,61.127,13.286
2017-10-14T13:10:52,42.805,6.029,4330,1995,199.949,61.144,13.286
2017-10-14T13:13:52,42.805,6.029,4330,1995,200.025,61.167,13.286
2017-10-14T13:16:52,42.805,6.029,4330,1995,199.889,61.126,13.286
2017-10-14T13:19:52,42.805,6.029,4330,1995,199.929,61.139,13.286
2017-10-14T13:22:52,42.805,6.029,4330,1995,199.914,61.134,13.286
2017-10-14T13:25:52,42.805,6.029,4330,1995,199.892,61.127,13.286
2017-10-14T13:28:52,42.805,6.029,4330,1995,199.916,61.138,13.289
2017-10-14T13:31:52,42.805,6.029,4330,1995,199.919,61.136,13.286
2017-10-14T13:34:52,42.805,6.029,4330,1995,200.002,61.161,13.286
2017-10-14T13:37:52,42.805,6.029,4330,1995,199.859,61.117,13.286
2017-10-14T13:40:52,42.805,6.029,4330,1995,199.991,61.157,13.286
2017-10-14T13:43:52,42.805,6.029,4330,1995,199.988,61.157,13.286
2017-10-14T13:46:52,42.805,6.029,4330,1995,199.949,61.144,13.286
2017-10-14T13:49:52,42.805,6.029,4330,1995,199.917,61.134,13.286
2017-10-14T13:52:52,42.805,6.029,4330,1995,199.889,61.126,13.286
2017-10-14T13:55:52,42.805,6.029,4330,1995,199.972,61.152,13.286
2017-10-14T13:58:52,42.805,6.029,4330,1995,199.969,61.150,13.286
2017-10-14T14:01:52,42.805,6.029,4330,1995,199.993,61.158,13.286
2017-10-14T14:04:52,42.805,6.029,4330,1995,199.987,61.156,13.286
2017-10-14T14:07:52,42.805,6.029,4330,1995,199.914,61.134,13.286
2017-10-14T14:10:52,42.805,6.029,4330,1995,199.990,61.157,13.286
2017-10-14T14:13:52,42.805,6.029,4330,1995,199.931,61.139,13.286
2017-10-14T14:16:52,42.805,6.029,4330,1995,199.970,61.151,13.286
2017-10-14T14:19:52,42.805,6.029,4330,1995,199.887,61.126,13.286
2017-10-14T14:22:52,42.805,6.029,4330,1995,199.874,61.122,13.286
2017-10-14T14:25:52,42.805,6.029,4330,1995,199.999,61.160,13.286
2017-10-14T14:28:52,42.805,6.029,4330,1995,199.894,61.128,13.286
2017-10-14T14:31:52,42.805,6.029,4330,1995,199.883,61.124,13.286
2017-10-14T14:34:52,42.805,6.029,4330,1995,199.838,61.110,13.286
2017-10-14T14:37:52,42.805,6.029,4330,1995,199.821,61.105,13.286
2017-10-14T14:40:52,42.805,6.029,4330,1995,199.962,61.148,13.286
2017-10-14T14:43:52,42.805,6.029,4330,1995,199.901,61.130,13.286
2017-10-14T14:46:52,42.805,6.029,4330,1995,199.865,61.119,13.286
2017-10-14T14:49:52,42.805,6.029,4330,1995,200.003,61.161,13.286
2017-10-14T14:52:52,42.805,6.029,4330,1995,199.998,61.160,13.286
2017-10-14T14:55:52,42.805,6.029,4330,1995,200.016,61.165,13.286
2017-10-14T14:58:52,42.805,6.029,4330,1995,200.035,61.171,13.286
2017-10-14T15:01:52,42.805,6.029,4330,1995,199.971,61.151,13.286
2017-10-14T15:04:52,42.805,6.029,4330,1995,200.037,61.171,13.286
2017-10-14T15:07:52,42.805,6.029,4330,1995,199.987,61.156,13.286
2017-10-14T15:10:52,42.805,6.029,4330,1995,199.898,61.129,13.286
2017-10-14T15:13:52,42.805,6.029,4330,1995,199.930,61.139,13.286
2017-10-14T15:16:52,42.805,6.029,4330,1995,199.930,61.139,13.286
2017-10-14T15:19:52,42.805,6.029,4330,1995,199.837,61.110,13.286
2017-10-14T15:22:52,42.805,6.029,4330,1995,199.816,61.103,13.286
2017-10-14T15:25:52,42.805,6.029,4330,1995,199.892,61.128,13.286
2017-10-14T15:28:52,42.805,6.029,4330,1995,199.953,61.145,13.286
2017-10-14T15:31:52,42.805,6.029,4330,1995,199.906,61.132,13.286
2017-10-14T15:34:52,42.805,6.029,4330,1995,199.828,61.107,13.286
2017-10-14T15:37:52,42.805,6.029,4330,1995,199.724,61.076,13.286
2017-10-14T15:40:52,42.805,6.029,4330,1995,199.717,61.074,13.286
2017-10-14T15:43:52,42.805,6.029,4330,1995,199.806,61.101,13.286
2017-10-14T15:46:52,42.805,6.029,4330,1995,199.823,61.106,13.286
2017-10-14T15:49:52,42.805,6.029,4330,1995,199.776,61.091,13.286
2017-10-14T15:52:52,42.805,6.029,4330,1995,199.823,61.106,13.286
2017-10-14T15:55:52,42.805,6.029,4330,1995,199.817,61.104,13.286
2017-10-14T15:58:52,42.805,6.029,4330,1995,199.800,61.099,13.286
2017-10-14T16:01:52,42.805,6.029,4330,1995,199.811,61.102,13.286
2017-10-14T16:04:52,42.805,6.029,4330,1995,199.765,61.088,13.286
2017-10-14T16:07:52,42.805,6.029,4330,1995,199.734,61.078,13.286
2017-10-14T16:10:52,42.805,6.029,4330,1995,199.747,61.083,13.286
2017-10-14T16:13:52,42.805,6.029,4330,1995,199.846,61.112,13.286
2017-10-14T16:16:52,42.805,6.029,4330,1995,199.814,61.103,13.286
2017-10-14T16:19:52,42.805,6.029,4330,1995,199.733,61.078,13.286
2017-10-14T16:22:52,42.805,6.029,4330,1995,199.753,61.084,13.286
2017-10-14T16:25:52,42.805,6.029,4330,1995,199.703,61.070,13.286
2017-10-14T16:28:52,42.805,6.029,4330,1995,199.584,61.033,13.286
2017-10-14T16:31:52,42.805,6.029,4330,1995,199.660,61.056,13.286
2017-10-14T16:34:52,42.805,6.029,4330,1995,199.701,61.069,13.286
2017-10-14T16:37:52,42.805,6.029,4330,1995,199.801,61.099,13.286
2017-10-14T16:40:52,42.805,6.029,4330,1995,199.756,61.085,13.286
2017-10-14T16:43:52,42.805,6.029,4330,1995,199.763,61.088,13.286
2017-10-14T16:46:52,42.805,6.029,4330,1995,199.751,61.084,13.286
2017-10-14T16:49:52,42.805,6.029,4330,1995,199.776,61.091,13.286
2017-10-14T16:52:52,42.805,6.029,4330,1995,199.897,61.128,13.286
2017-10-14T16:55:52,42.805,6.029,4330,1995,199.901,61.130,13.286
2017-10-14T16:58:52,42.805,6.029,4330,1995,199.814,61.103,13.286
2017-10-14T17:01:52,42.805,6.029,4330,1995,199.856,61.116,13.286
2017-10-14T17:04:52,42.805,6.029,4330,1995,199.932,61.139,13.286
2017-10-14T17:07:52,42.805,6.029,4330,1995,199.896,61.128,13.286
2017-10-14T17:10:52,42.805,6.029,4330,1995,199.941,61.142,13.286
2017-10-14T17:13:52,42.805,6.029,4330,1995,199.987,61.156,13.286
2017-10-14T17:16:52,42.805,6.029,4330,1995,199.861,61.118,13.286
2017-10-14T17:19:51,42.805,6.029,4330,1995,199.746,61.083,13.287
2017-10-14T17:22:51,42.805,6.029,4330,1995,199.723,61.075,13.286
2017-10-14T17:25:51,42.805,6.029,4330,1995,199.824,61.106,13.286
2017-10-14T17:28:51,42.805,6.029,4330,1995,199.816,61.104,13.286
2017-10-14T17:31:51,42.805,6.029,4330,1995,199.790,61.096,13.286
2017-10-14T17:34:51,42.805,6.029,4330,1995,199.778,61.093,13.286
2017-10-14T17:37:51,42.805,6.029,4330,1995,199.792,61.096,13.286
2017-10-14T17:40:51,42.805,6.029,4330,1995,199.788,61.096,13.287
2017-10-14T17:43:51,42.805,6.029,4330,1995,199.830,61.108,13.286
2017-10-14T17:46:51,42.805,6.029,4330,1995,199.791,61.096,13.286
2017-10-14T17:49:51,42.805,6.029,4330,1995,199.728,61.077,13.286
2017-10-14T17:52:51,42.805,6.029,4330,1995,199.842,61.111,13.286
2017-10-14T17:55:51,42.805,6.029,4330,1995,199.881,61.123,13.286
2017-10-14T17:58:51,42.805,6.029,4330,1995,199.836,61.110,13.286
2017-10-14T18:01:51,42.805,6.029,4330,1995,199.808,61.101,13.286
2017-10-14T18:04:51,42.805,6.029,4330,1995,199.629,61.047,13.286
2017-10-14T18:07:51,42.805,6.029,4330,1995,199.567,61.028,13.286